Location: Newark
(34.9756°N, 138.3828°E)
Time: 01:50:56
(UTC+00:00)

N. Korean satellite - Pass Details

Date: 17 December 2019
Orbit: 454 x 507 km, 97.2° (Epoch: 23 January)

Event Time Altitude Azimuth Distance (km) Brightness Sun altitude
Rises 20:54:11 0° 3° (N) 2,502 10.0 -10.9°
Reaches altitude 10° 20:56:19 10° 356° (N) 1,615 9.0 -10.5°
Maximum altitude 20:59:35 41° 285° (WNW) 671 6.8 -9.9°
Drops below altitude 10° 21:02:49 10° 213° (SSW) 1,588 9.1 -9.3°
Sets 21:04:53 0° 206° (SSW) 2,454 10.1 -8.9°
